QPF
0.00 0.00 0.00 0.00 0.00 0.00 0.00 0.00 0.00 0.00 0.00 0.00 0.00 0.00 0.00 0.00 0.00 0.00 0.00 0.00 0.00 0.00 0.00 0.00 0.00 0.01 0.02 0.05 0.03 0.01 0.00 0.00 0.00 0.00 0.00 0.00 0.00 0.00 0.00 0.00 0.00 0.00 0.00 0.00 0.03 0.11 0.12 0.03 0.00
0.00 0.00 0.00 0.00 0.00 0.00 0.00 0.00 0.00 0.00 0.00 0.00 0.00 0.00 0.00 0.00 0.00 0.00 0.00 0.00 0.00 0.00 0.00 0.00 0.00 0.00 0.01 0.04 0.10 0.03 0.01 0.00 0.00 0.00 0.00 0.00 0.00 0.00 0.00 0.00 0.00 0.00 0.01 0.02 0.02 0.01 0.00 0.00 0.00
0.00 0.00 0.00 0.00 0.00 0.00 0.00 0.00 0.00 0.00 0.00 0.00 0.00 0.00 0.00 0.00 0.00 0.00 0.00 0.00 0.00 0.00 0.00 0.00 0.00 0.00 0.01 0.03 0.09 0.06 0.04 0.02 0.01 0.00 0.00 0.00 0.00 0.00 0.00 0.00 0.02 0.00 0.04 0.02 0.00 0.00 0.00 0.00 0.00
0.00 0.00 0.00 0.00 0.00 0.00 0.00 0.00 0.00 0.00 0.00 0.00 0.00 0.00 0.00 0.00 0.00 0.00 0.00 0.00 0.00 0.00 0.00 0.00 0.00 0.00 0.02 0.05 0.07 0.09 0.06 0.02 0.02 0.01 0.00 0.00 0.00 0.00 0.00 0.01 0.01 0.00 0.04 0.01 0.00 0.00 0.00 0.00 0.00
0.00 0.00 0.00 0.00 0.00 0.00 0.00 0.00 0.00 0.00 0.00 0.00 0.00 0.00 0.00 0.00 0.00 0.00 0.00 0.00 0.00 0.00 0.00 0.00 0.00 0.00 0.00 0.03 0.04 0.10 0.09 0.06 0.03 0.03 0.00 0.00 0.00 0.00 0.00 0.00 0.00 0.00 0.03 0.00 0.00 0.00 0.00 0.00 0.00
0.00 0.00 0.00 0.00 0.00 0.00 0.00 0.00 0.00 0.00 0.00 0.00 0.00 0.00 0.00 0.00 0.00 0.00 0.00 0.00 0.00 0.00 0.00 0.00 0.00 0.00 0.00 0.01 0.03 0.06 0.10 0.06 0.03 0.02 0.01 0.00 0.00 0.00 0.00 0.00 0.00 0.01 0.01 0.00 0.00 0.00 0.00 0.00 0.00
0.00 0.00 0.00 0.00 0.00 0.00 0.00 0.00 0.00 0.00 0.00 0.00 0.00 0.00 0.00 0.00 0.00 0.00 0.00 0.00 0.00 0.00 0.00 0.00 0.00 0.00 0.00 0.00 0.01 0.03 0.07 0.11 0.08 0.09 0.03 0.00 0.00 0.00 0.00 0.00 0.00 0.01 0.01 0.00 0.00 0.00 0.00 0.00 0.00
0.00 0.00 0.00 0.00 0.00 0.00 0.00 0.00 0.00 0.00 0.00 0.00 0.00 0.00 0.00 0.00 0.00 0.00 0.00 0.00 0.00 0.00 0.00 0.00 0.00 0.00 0.00 0.00 0.00 0.01 0.01 0.05 0.06 0.04 0.00 0.00 0.00 0.00 0.00 0.00 0.00 0.00 0.00 0.00 0.00 0.00 0.00 0.00 0.00
0.00 0.00 0.00 0.00 0.00 0.00 0.00 0.00 0.00 0.00 0.00 0.00 0.00 0.00 0.00 0.00 0.00 0.00 0.00 0.00 0.00 0.00 0.00 0.00 0.00 0.00 0.00 0.00 0.02 0.03 0.01 0.02 0.04 0.04 0.00 0.00 0.00 0.00 0.00 0.00 0.00 0.00 0.00 0.00 0.00 0.00 0.00 0.00 0.00
0.00 0.00 0.00 0.00 0.00 0.00 0.00 0.00 0.00 0.00 0.00 0.00 0.00 0.00 0.00 0.00 0.00 0.00 0.00 0.00 0.00 0.00 0.00 0.00 0.00 0.00 0.00 0.00 0.01 0.09 0.09 0.01 0.03 0.06 0.01 0.00 0.00 0.00 0.00 0.00 0.00 0.00 0.00 0.00 0.00 0.00 0.00 0.00 0.00
0.00 0.00 0.00 0.00 0.00 0.00 0.00 0.00 0.00 0.00 0.00 0.00 0.00 0.00 0.00 0.00 0.00 0.00 0.00 0.00 0.00 0.00 0.00 0.00 0.00 0.00 0.00 0.00 0.00 0.03 0.08 0.06 0.02 0.03 0.01 0.00 0.01 0.01 0.01 0.01 0.00 0.00 0.00 0.00 0.00 0.00 0.00 0.00 0.00
0.00 0.00 0.00 0.00 0.00 0.00 0.00 0.00 0.00 0.00 0.00 0.00 0.00 0.00 0.00 0.00 0.00 0.00 0.00 0.00 0.00 0.00 0.00 0.00 0.00 0.00 0.00 0.00 0.00 0.00 0.04 0.06 0.02 0.00 0.01 0.00 0.00 0.00 0.01 0.01 0.00 0.00 0.00 0.00 0.00 0.00 0.00 0.00 0.00
0.00 0.00 0.00 0.00 0.00 0.00 0.00 0.00 0.00 0.00 0.00 0.00 0.00 0.00 0.00 0.00 0.00 0.00 0.00 0.00 0.00 0.00 0.00 0.00 0.00 0.00 0.00 0.00 0.00 0.00 0.01 0.05 0.04 0.07 0.03 0.00 0.00 0.00 0.00 0.00 0.00 0.00 0.00 0.00 0.00 0.00 0.00 0.00 0.00
0.00 0.00 0.00 0.00 0.00 0.00 0.00 0.00 0.00 0.00 0.00 0.00 0.00 0.00 0.00 0.00 0.00 0.00 0.00 0.00 0.00 0.00 0.00 0.00 0.00 0.00 0.00 0.00 0.00 0.00 0.00 0.01 0.09 0.07 0.14 0.03 0.00 0.00 0.00 0.00 0.00 0.00 0.00 0.00 0.00 0.00 0.00 0.00 0.00
0.00 0.00 0.00 0.00 0.00 0.00 0.00 0.00 0.00 0.00 0.00 0.00 0.00 0.00 0.00 0.00 0.00 0.00 0.00 0.00 0.00 0.00 0.00 0.00 0.00 0.00 0.00 0.00 0.00 0.00 0.00 0.00 0.03 0.01 0.05 0.14 0.00 0.00 0.00 0.00 0.00 0.00 0.00 0.00 0.00 0.00 0.00 0.00 0.00
0.00 0.00 0.00 0.00 0.00 0.00 0.00 0.00 0.00 0.00 0.00 0.00 0.00 0.00 0.00 0.00 0.00 0.00 0.00 0.00 0.00 0.00 0.00 0.00 0.00 0.00 0.00 0.00 0.00 0.00 0.00 0.00 0.01 0.02 0.07 0.11 0.10 0.01 0.00 0.00 0.00 0.00 0.00 0.00 0.00 0.00 0.00 0.00 0.00
0.00 0.00 0.01 0.00 0.00 0.00 0.00 0.00 0.00 0.00 0.00 0.00 0.00 0.00 0.00 0.00 0.00 0.00 0.00 0.00 0.00 0.00 0.00 0.00 0.00 0.00 0.00 0.00 0.00 0.00 0.00 0.00 0.01 0.02 0.10 0.11 0.13 0.11 0.04 0.00 0.00 0.00 0.00 0.00 0.00 0.00 0.00 0.00 0.00
0.01 0.01 0.01 0.00 0.00 0.00 0.00 0.00 0.00 0.00 0.00 0.00 0.00 0.00 0.00 0.00 0.00 0.00 0.00 0.00 0.00 0.00 0.00 0.00 0.00 0.00 0.00 0.00 0.00 0.00 0.00 0.00 0.01 0.02 0.04 0.10 0.11 0.08 0.09 0.00 0.00 0.00 0.00 0.00 0.00 0.00 0.00 0.00 0.00
0.00 0.00 0.00 0.00 0.00 0.00 0.00 0.00 0.00 0.00 0.00 0.00 0.00 0.00 0.00 0.00 0.00 0.00 0.00 0.00 0.00 0.00 0.00 0.00 0.00 0.00 0.00 0.00 0.00 0.00 0.00 0.00 0.00 0.02 0.03 0.09 0.09 0.04 0.07 0.02 0.01 0.01 0.00 0.00 0.00 0.00 0.00 0.00 0.00
0.00 0.01 0.00 0.00 0.00 0.00 0.00 0.00 0.00 0.00 0.00 0.00 0.00 0.00 0.00 0.00 0.00 0.00 0.00 0.00 0.00 0.00 0.00 0.00 0.00 0.00 0.00 0.00 0.00 0.00 0.00 0.00 0.00 0.00 0.02 0.05 0.07 0.05 0.05 0.04 0.01 0.00 0.00 0.00 0.00 0.00 0.00 0.00 0.00
0.00 0.01 0.00 0.00 0.00 0.00 0.00 0.00 0.00 0.00 0.00 0.00 0.00 0.00 0.00 0.00 0.00 0.00 0.00 0.00 0.00 0.00 0.00 0.00 0.00 0.00 0.00 0.00 0.00 0.00 0.00 0.00 0.00 0.01 0.04 0.06 0.07 0.05 0.06 0.05 0.02 0.01 0.00 0.00 0.00 0.00 0.00 0.00 0.00
0.01 0.01 0.00 0.00 0.00 0.00 0.00 0.00 0.00 0.00 0.00 0.00 0.00 0.00 0.00 0.00 0.00 0.00 0.00 0.00 0.00 0.00 0.00 0.00 0.00 0.00 0.00 0.00 0.00 0.00 0.00 0.00 0.00 0.00 0.02 0.06 0.08 0.06 0.03 0.04 0.03 0.03 0.02 0.01 0.00 0.00 0.00 0.00 0.00
0.01 0.00 0.00 0.00 0.00 0.00 0.00 0.00 0.00 0.00 0.00 0.00 0.00 0.00 0.00 0.00 0.00 0.00 0.00 0.00 0.00 0.00 0.00 0.00 0.00 0.00 0.00 0.00 0.00 0.00 0.00 0.00 0.00 0.00 0.00 0.06 0.11 0.06 0.03 0.02 0.03 0.03 0.04 0.03 0.01 0.00 0.00 0.00 0.00
0.00 0.00 0.00 0.00 0.00 0.00 0.00 0.00 0.00 0.00 0.00 0.00 0.00 0.00 0.00 0.00 0.00 0.00 0.00 0.00 0.00 0.00 0.00 0.00 0.02 0.01 0.00 0.00 0.00 0.00 0.00 0.00 0.01 0.01 0.01 0.03 0.07 0.12 0.05 0.03 0.04 0.04 0.04 0.04 0.02 0.01 0.01 0.01 0.01
0.00 0.00 0.02 0.01 0.01 0.01 0.00 0.00 0.00 0.00 0.00 0.00 0.00 0.00 0.00 0.00 0.00 0.00 0.00 0.00 0.00 0.00 0.00 0.00 0.01 0.01 0.01 0.01 0.00 0.00 0.00 0.01 0.02 0.03 0.04 0.03 0.05 0.08 0.08 0.07 0.04 0.02 0.02 0.03 0.03 0.03 0.01 0.02 0.01
0.00 0.00 0.01 0.01 0.00 0.00 0.00 0.00 0.00 0.00 0.00 0.00 0.00 0.00 0.00 0.00 0.00 0.00 0.00 0.00 0.00 0.00 0.00 0.00 0.01 0.02 0.00 0.00 0.00 0.00 0.00 0.00 0.01 0.03 0.06 0.08 0.04 0.04 0.05 0.04 0.02 0.02 0.02 0.03 0.04 0.03 0.03 0.01 0.02
0.00 0.00 0.00 0.00 0.00 0.00 0.00 0.00 0.00 0.00 0.00 0.00 0.00 0.00 0.00 0.00 0.00 0.00 0.00 0.00 0.00 0.00 0.00 0.00 0.00 0.01 0.02 0.03 0.03 0.03 0.02 0.01 0.00 0.01 0.02 0.06 0.09 0.05 0.04 0.05 0.05 0.03 0.04 0.03 0.03 0.03 0.02 0.02 0.03
0.00 0.00 0.00 0.00 0.00 0.00 0.00 0.00 0.00 0.00 0.00 0.00 0.00 0.00 0.00 0.00 0.00 0.00 0.00 0.00 0.00 0.00 0.00 0.00 0.00 0.00 0.01 0.05 0.08 0.13 0.14 0.12 0.06 0.08 0.08 0.10 0.10 0.09 0.06 0.05 0.05 0.04 0.04 0.03 0.02 0.03 0.02 0.01 0.01
0.00 0.00 0.00 0.00 0.00 0.00 0.00 0.00 0.00 0.00 0.00 0.00 0.00 0.00 0.00 0.00 0.00 0.00 0.00 0.00 0.00 0.00 0.00 0.00 0.00 0.00 0.01 0.04 0.05 0.07 0.06 0.13 0.16 0.16 0.15 0.14 0.08 0.06 0.03 0.02 0.02 0.02 0.02 0.01 0.01 0.02 0.02 0.01 0.01
0.00 0.00 0.00 0.00 0.00 0.00 0.00 0.00 0.00 0.00 0.00 0.00 0.00 0.00 0.00 0.00 0.00 0.00 0.00 0.00 0.00 0.00 0.00 0.00 0.00 0.00 0.02 0.02 0.04 0.07 0.10 0.12 0.21 0.21 0.11 0.10 0.08 0.06 0.03 0.01 0.00 0.00 0.01 0.02 0.02 0.01 0.00 0.00 0.00
MSLP
1013.36 1012.81 1012.39 1012.09 1012.45 1011.46 1010.17 1008.80 1007.35 1007.61 1007.74 1008.69 1008.47 1008.46 1008.42 1008.33 1008.80 1010.64 1011.36 1011.13 1011.19 1011.00 1010.70 1010.97 1010.87 1011.26 1011.61 1011.88 1012.25 1012.57 1012.88 1013.11 1013.30 1013.81 1014.13 1014.43 1014.71 1014.94 1015.12 1015.38 1015.52 1015.57 1015.77 1015.95 1015.97 1016.19 1016.52 1016.85 1017.14
1013.20 1012.71 1012.69 1012.13 1012.08 1011.01 1009.61 1008.25 1007.97 1008.78 1009.22 1009.16 1009.10 1009.03 1008.82 1009.01 1009.23 1010.41 1011.12 1011.28 1011.02 1011.19 1011.39 1011.52 1011.48 1011.19 1011.53 1011.87 1012.23 1012.56 1012.93 1013.18 1013.41 1013.69 1014.23 1014.58 1014.75 1015.03 1015.23 1015.44 1015.57 1015.76 1015.88 1016.17 1016.35 1016.48 1016.82 1017.22 1017.44
1013.62 1012.72 1012.79 1012.32 1011.55 1010.40 1009.23 1008.82 1008.73 1009.37 1009.77 1009.83 1009.81 1009.74 1009.55 1009.82 1010.08 1010.81 1011.53 1011.47 1011.14 1011.27 1011.58 1011.86 1011.63 1011.43 1011.46 1011.80 1012.13 1012.45 1012.87 1013.25 1013.45 1013.77 1014.03 1014.54 1014.80 1015.04 1015.35 1015.41 1015.70 1015.91 1016.19 1016.45 1016.62 1016.95 1017.17 1017.31 1017.61
1013.32 1013.07 1012.86 1012.48 1011.28 1010.12 1009.84 1009.81 1009.94 1009.96 1010.37 1010.58 1010.73 1010.51 1010.25 1010.53 1010.70 1011.28 1011.56 1011.74 1011.70 1011.56 1011.51 1011.80 1011.80 1011.76 1011.68 1011.78 1012.07 1012.41 1012.71 1013.11 1013.43 1013.76 1013.90 1014.47 1014.73 1015.00 1015.30 1015.57 1015.79 1016.10 1016.48 1016.64 1016.96 1017.20 1017.45 1017.62 1017.68
1013.25 1013.08 1012.67 1012.16 1011.14 1010.51 1010.40 1010.72 1010.83 1010.63 1010.79 1011.02 1011.48 1011.06 1010.88 1010.96 1011.26 1011.40 1011.67 1011.87 1011.99 1011.98 1011.78 1011.67 1011.83 1011.94 1011.96 1011.87 1012.00 1012.28 1012.61 1013.00 1013.36 1013.65 1013.87 1014.30 1014.69 1014.91 1015.22 1015.67 1015.93 1016.26 1016.62 1016.88 1017.17 1017.46 1017.68 1017.80 1018.02
1013.50 1013.34 1012.70 1011.77 1010.91 1010.81 1010.98 1011.26 1011.65 1011.54 1011.33 1011.56 1011.83 1011.80 1011.42 1011.25 1011.59 1011.82 1011.90 1012.16 1012.34 1012.28 1011.97 1011.75 1011.68 1011.84 1012.01 1012.05 1011.97 1012.15 1012.46 1012.81 1013.16 1013.55 1013.88 1014.17 1014.63 1015.00 1015.19 1015.61 1016.03 1016.35 1016.73 1017.05 1017.32 1017.62 1017.92 1018.15 1018.22
1013.72 1013.34 1012.49 1011.79 1011.16 1011.42 1011.55 1012.00 1012.32 1012.18 1012.04 1012.09 1012.43 1012.40 1011.90 1011.69 1011.95 1012.11 1012.33 1012.42 1012.52 1012.42 1012.18 1011.97 1011.63 1011.55 1011.77 1011.96 1012.05 1012.10 1012.38 1012.72 1012.96 1013.37 1013.78 1014.16 1014.55 1014.89 1015.25 1015.47 1016.00 1016.36 1016.69 1017.08 1017.44 1017.74 1018.03 1018.31 1018.53
1014.39 1013.83 1012.64 1012.25 1011.74 1011.92 1012.38 1012.54 1012.94 1013.13 1012.83 1012.43 1012.70 1012.63 1012.16 1012.17 1012.11 1012.29 1012.48 1012.62 1012.59 1012.40 1012.25 1011.93 1011.67 1011.37 1011.43 1011.73 1011.83 1012.02 1012.27 1012.63 1012.96 1013.34 1013.69 1014.10 1014.48 1014.83 1015.17 1015.61 1015.92 1016.31 1016.70 1017.08 1017.51 1017.83 1018.08 1018.35 1018.65
1014.57 1014.19 1013.24 1012.38 1012.37 1012.54 1013.11 1013.35 1013.16 1013.22 1013.41 1013.16 1012.93 1012.59 1012.33 1011.96 1011.99 1012.28 1012.54 1012.67 1012.58 1012.23 1011.95 1011.67 1011.53 1011.35 1011.27 1011.34 1011.57 1011.77 1012.05 1012.39 1012.75 1013.09 1013.54 1014.05 1014.42 1014.75 1015.11 1015.46 1015.86 1016.19 1016.60 1016.99 1017.40 1017.84 1018.22 1018.43 1018.71
1014.62 1014.01 1013.50 1013.27 1013.17 1013.31 1013.41 1013.63 1013.67 1013.68 1013.40 1013.10 1012.70 1012.19 1012.00 1012.12 1012.35 1012.55 1012.70 1012.73 1012.51 1012.32 1011.99 1011.72 1011.49 1011.34 1011.21 1011.05 1011.27 1011.35 1011.65 1012.09 1012.45 1012.85 1013.28 1013.65 1014.10 1014.42 1014.85 1015.36 1015.81 1016.16 1016.47 1016.79 1017.15 1017.55 1018.11 1018.59 1018.85
1014.58 1014.30 1014.06 1013.67 1013.71 1013.92 1014.03 1014.00 1013.85 1013.68 1013.36 1013.16 1012.84 1012.51 1012.31 1012.40 1012.53 1012.55 1012.49 1012.46 1012.27 1011.95 1011.83 1011.70 1011.53 1011.20 1011.09 1011.11 1011.04 1011.11 1011.21 1011.64 1012.02 1012.37 1012.79 1013.17 1013.53 1014.10 1014.54 1015.15 1015.72 1016.25 1016.66 1016.92 1017.17 1017.59 1017.99 1018.34 1018.61
1015.18 1014.43 1014.44 1014.32 1014.16 1014.36 1014.32 1014.10 1013.83 1013.60 1013.14 1012.84 1012.49 1012.43 1012.51 1012.63 1012.51 1012.31 1012.16 1012.03 1011.83 1011.59 1011.46 1011.44 1011.39 1011.24 1011.09 1010.80 1010.83 1010.89 1010.96 1011.09 1011.47 1011.80 1012.29 1012.75 1012.98 1013.43 1013.90 1014.76 1015.34 1015.84 1016.38 1016.82 1017.08 1017.40 1017.59 1017.80 1017.96
1015.09 1014.60 1014.52 1014.40 1014.27 1014.27 1014.23 1013.93 1013.64 1013.02 1012.75 1012.45 1012.22 1012.08 1012.30 1012.23 1011.99 1011.81 1011.68 1011.53 1011.41 1011.29 1011.15 1010.98 1011.06 1010.96 1010.85 1010.81 1010.72 1010.50 1010.62 1010.64 1010.75 1011.13 1011.66 1012.14 1012.39 1012.95 1013.28 1014.02 1014.72 1015.22 1015.78 1016.21 1016.67 1016.96 1017.20 1017.28 1017.44
1014.88 1014.91 1014.73 1014.35 1014.03 1013.78 1013.61 1013.27 1012.95 1012.33 1011.77 1012.00 1012.04 1011.93 1011.68 1011.66 1011.67 1011.57 1011.49 1011.33 1011.05 1010.76 1010.61 1010.36 1010.34 1010.44 1010.45 1010.37 1010.37 1010.22 1010.26 1010.14 1010.22 1010.58 1010.92 1011.32 1011.77 1012.26 1012.90 1013.54 1014.05 1014.53 1014.93 1015.48 1016.02 1016.28 1016.59 1016.96 1016.97
1015.06 1015.02 1014.44 1013.63 1013.23 1013.10 1013.25 1013.02 1012.06 1011.87 1011.69 1011.52 1011.57 1011.35 1011.23 1011.42 1011.54 1011.73 1011.60 1011.29 1010.86 1010.57 1010.21 1009.90 1009.75 1009.69 1009.76 1009.76 1009.74 1009.79 1009.64 1009.69 1009.85 1009.82 1010.14 1010.66 1011.00 1011.53 1012.20 1012.90 1013.47 1013.79 1014.32 1014.76 1015.36 1015.79 1016.09 1016.59 1016.71
1014.92 1014.81 1014.26 1013.30 1013.14 1013.15 1013.54 1012.58 1011.32 1011.38 1011.34 1011.24 1011.30 1011.32 1011.25 1011.44 1011.67 1011.85 1011.71 1011.32 1010.91 1010.47 1010.11 1009.53 1009.15 1008.93 1008.89 1009.08 1009.02 1009.11 1009.02 1009.20 1009.31 1009.28 1009.37 1009.88 1010.36 1010.92 1011.61 1012.20 1012.60 1013.03 1013.61 1014.13 1014.84 1015.35 1015.73 1016.12 1016.50
1014.53 1014.72 1014.45 1013.77 1013.18 1013.27 1013.28 1012.47 1011.65 1011.27 1011.09 1010.88 1011.01 1011.41 1011.60 1011.79 1011.95 1012.13 1011.84 1011.52 1010.89 1010.29 1009.75 1009.15 1008.74 1008.17 1008.17 1008.22 1008.44 1008.32 1008.36 1008.38 1008.58 1008.82 1008.90 1009.02 1009.76 1010.37 1010.92 1011.59 1011.95 1012.18 1012.84 1013.55 1014.23 1014.76 1015.20 1015.82 1016.23
1015.11 1015.47 1014.97 1013.99 1013.65 1013.35 1013.14 1012.54 1011.90 1011.32 1010.80 1010.85 1011.13 1011.54 1012.09 1012.37 1012.68 1012.27 1011.75 1011.15 1010.32 1009.66 1008.77 1008.09 1007.81 1007.52 1007.33 1007.61 1007.78 1007.76 1007.64 1007.68 1007.78 1008.21 1008.40 1008.41 1008.95 1009.66 1010.40 1010.89 1011.52 1011.65 1012.33 1012.99 1013.68 1014.28 1014.75 1015.28 1016.01
1014.87 1014.79 1014.55 1014.12 1013.60 1013.13 1013.17 1012.66 1011.76 1011.05 1010.83 1010.90 1011.56 1012.18 1012.82 1013.12 1012.42 1011.66 1011.07 1010.61 1009.80 1008.72 1007.62 1006.78 1006.44 1006.52 1006.55 1006.88 1007.19 1007.23 1007.03 1007.19 1007.25 1007.37 1007.77 1007.88 1008.19 1008.79 1009.76 1010.19 1010.85 1011.54 1011.93 1012.44 1013.16 1013.93 1014.61 1015.07 1015.45
1014.97 1014.91 1014.62 1013.89 1013.36 1013.01 1013.03 1012.39 1011.51 1010.83 1010.54 1011.11 1011.90 1012.87 1013.19 1012.83 1012.28 1011.61 1011.01 1010.33 1009.42 1008.59 1007.38 1005.96 1005.41 1005.52 1005.57 1005.96 1006.37 1006.61 1006.71 1006.65 1006.70 1006.91 1007.20 1007.28 1007.61 1007.87 1008.79 1009.48 1009.97 1010.82 1011.56 1012.22 1012.85 1013.38 1014.27 1014.85 1014.97
1014.82 1015.01 1015.28 1014.71 1014.09 1013.60 1013.17 1012.10 1010.69 1010.49 1010.54 1011.13 1011.96 1012.76 1012.90 1012.80 1012.32 1011.71 1010.69 1010.10 1009.38 1008.48 1007.45 1006.32 1005.08 1004.75 1004.89 1005.37 1005.87 1006.14 1006.32 1006.44 1006.59 1006.68 1006.81 1006.98 1007.37 1007.62 1008.12 1008.74 1009.28 1010.12 1010.67 1011.49 1012.28 1012.95 1013.69 1014.41 1014.76
1015.10 1015.22 1015.25 1015.26 1014.93 1014.22 1013.23 1012.17 1010.49 1010.35 1010.68 1011.26 1011.99 1012.55 1012.60 1012.44 1011.88 1011.40 1010.63 1009.46 1008.85 1008.10 1007.36 1006.30 1005.18 1004.35 1004.42 1004.86 1005.39 1005.70 1005.72 1005.92 1006.02 1006.29 1006.40 1006.48 1006.81 1007.06 1007.42 1007.99 1008.45 1009.33 1010.03 1010.72 1011.50 1012.20 1013.00 1013.90 1014.53
1015.46 1015.41 1015.65 1015.54 1015.29 1014.65 1013.46 1013.06 1010.54 1010.68 1011.02 1011.42 1011.86 1012.22 1012.29 1012.21 1011.89 1011.34 1010.59 1009.81 1008.92 1008.05 1007.11 1006.06 1005.03 1004.25 1003.91 1004.19 1004.52 1004.92 1005.37 1005.48 1005.62 1005.91 1006.22 1005.96 1006.30 1006.34 1006.83 1007.04 1007.80 1008.76 1009.08 1009.95 1010.82 1011.65 1012.35 1013.12 1013.47
1015.58 1015.48 1015.60 1015.73 1015.58 1014.68 1013.02 1012.68 1011.07 1010.92 1011.01 1011.22 1011.61 1011.92 1011.99 1011.81 1011.43 1011.03 1010.47 1009.66 1008.59 1007.72 1006.79 1005.82 1004.73 1003.98 1003.77 1003.78 1004.02 1004.25 1004.62 1005.04 1005.27 1005.48 1005.72 1005.68 1005.43 1005.29 1005.37 1006.17 1007.21 1005.89 1008.70 1009.23 1010.21 1011.00 1011.68 1012.49 1013.00
1015.60 1015.90 1016.03 1016.30 1015.58 1014.13 1012.55 1012.35 1010.62 1010.45 1010.60 1010.98 1011.31 1011.60 1011.59 1011.54 1011.34 1010.85 1010.15 1009.40 1008.56 1007.67 1006.71 1005.70 1004.91 1004.15 1003.56 1003.50 1003.67 1003.84 1004.10 1004.41 1004.55 1004.75 1005.08 1005.33 1005.06 1004.83 1006.10 1005.25 1006.15 1007.64 1007.65 1008.64 1009.76 1010.54 1011.39 1011.66 1012.23
1015.81 1015.95 1016.23 1016.16 1015.36 1013.92 1012.54 1011.45 1009.98 1009.85 1010.16 1010.52 1010.71 1011.13 1011.26 1011.25 1011.06 1010.52 1009.89 1009.37 1008.69 1007.72 1006.70 1005.89 1005.08 1004.20 1003.47 1003.26 1003.22 1003.43 1003.61 1003.87 1004.00 1004.16 1004.44 1004.71 1004.79 1004.31 1004.41 1004.58 1005.79 1006.62 1007.48 1008.34 1009.09 1009.58 1010.36 1011.11 1011.50
1015.66 1016.09 1016.25 1016.47 1015.79 1014.76 1012.18 1010.57 1010.03 1009.84 1009.93 1010.20 1010.57 1010.81 1010.93 1010.89 1010.55 1010.09 1009.54 1009.18 1008.53 1007.62 1006.81 1005.93 1005.07 1004.06 1003.18 1002.80 1002.80 1002.84 1003.01 1003.37 1003.62 1003.62 1003.64 1003.94 1004.32 1004.54 1004.81 1005.02 1005.76 1006.41 1006.96 1007.64 1008.57 1008.98 1009.30 1010.31 1010.91
1016.30 1016.43 1016.62 1016.61 1016.45 1014.99 1012.28 1010.72 1009.79 1009.84 1009.83 1010.12 1010.47 1010.61 1010.69 1010.61 1010.28 1009.97 1009.51 1009.01 1008.32 1007.62 1006.90 1005.84 1004.81 1003.68 1002.72 1002.19 1002.31 1002.44 1002.56 1002.66 1002.85 1003.18 1003.33 1003.41 1003.68 1004.25 1004.73 1005.25 1005.55 1005.77 1006.44 1007.35 1007.92 1008.59 1009.07 1009.50 1009.97
1016.38 1016.39 1016.74 1017.19 1017.04 1016.33 1014.23 1011.18 1009.46 1009.45 1009.60 1009.92 1010.08 1010.21 1010.33 1010.32 1010.18 1009.75 1009.30 1008.98 1008.50 1007.74 1007.03 1005.95 1004.90 1004.18 1003.19 1002.58 1002.29 1002.39 1002.31 1002.40 1002.21 1002.41 1002.44 1002.90 1003.22 1003.77 1004.24 1004.59 1005.50 1005.77 1006.53 1006.90 1007.60 1008.05 1008.66 1009.06 1009.48
1016.30 1016.45 1016.97 1017.72 1017.65 1016.72 1015.31 1012.05 1009.75 1009.54 1009.61 1009.74 1009.89 1009.90 1009.91 1009.90 1009.87 1009.75 1009.46 1009.10 1008.46 1007.87 1007.25 1006.64 1005.84 1004.92 1004.37 1003.66 1002.88 1002.64 1002.27 1001.65 1002.24 1002.59 1002.63 1002.81 1002.78 1003.64 1003.98 1004.37 1005.28 1005.64 1006.40 1006.73 1007.09 1007.90 1008.45 1008.77 1009.02
Thickness
5687 5693 5699 5698 5674 5681 5686 5705 5734 5731 5730 5733 5739 5736 5734 5738 5734 5714 5746 5755 5757 5760 5763 5763 5765 5762 5762 5762 5761 5761 5759 5760 5759 5756 5755 5752 5751 5749 5748 5746 5745 5744 5743 5741 5741 5739 5737 5735 5733
5682 5688 5689 5686 5667 5666 5684 5715 5713 5707 5716 5729 5729 5730 5733 5724 5744 5739 5741 5749 5755 5754 5755 5754 5757 5760 5758 5758 5758 5758 5756 5756 5756 5755 5752 5750 5749 5747 5747 5746 5745 5743 5742 5740 5739 5738 5735 5732 5731
5675 5684 5673 5671 5669 5672 5689 5703 5705 5709 5714 5712 5713 5724 5722 5719 5735 5736 5738 5742 5747 5749 5749 5748 5752 5755 5756 5754 5754 5755 5753 5752 5753 5752 5751 5749 5747 5745 5743 5745 5743 5742 5740 5738 5737 5735 5733 5732 5729
5669 5670 5670 5656 5667 5691 5689 5694 5697 5700 5701 5705 5703 5698 5718 5725 5727 5729 5732 5733 5736 5742 5744 5745 5746 5748 5751 5752 5751 5751 5751 5750 5749 5748 5749 5747 5746 5744 5742 5741 5741 5739 5737 5736 5734 5733 5731 5729 5729
5662 5660 5651 5655 5666 5679 5686 5688 5687 5689 5692 5695 5691 5690 5701 5715 5723 5724 5726 5727 5728 5732 5737 5740 5741 5742 5745 5747 5747 5747 5747 5746 5746 5746 5746 5745 5744 5743 5741 5738 5738 5737 5735 5733 5731 5730 5729 5728 5726
5643 5649 5642 5646 5667 5674 5676 5679 5679 5679 5685 5686 5684 5684 5692 5709 5709 5711 5718 5719 5722 5723 5729 5733 5737 5738 5740 5742 5744 5744 5744 5743 5743 5742 5741 5742 5741 5740 5739 5737 5735 5734 5732 5730 5729 5727 5725 5724 5724
5636 5637 5642 5653 5659 5659 5666 5670 5663 5666 5669 5672 5678 5669 5683 5694 5702 5705 5709 5711 5713 5715 5720 5725 5731 5734 5734 5736 5738 5740 5740 5740 5740 5738 5738 5738 5737 5737 5736 5736 5733 5731 5730 5728 5726 5724 5723 5721 5720
5625 5629 5643 5646 5646 5646 5653 5657 5656 5653 5656 5672 5670 5660 5671 5685 5695 5697 5699 5701 5703 5708 5713 5717 5723 5729 5731 5731 5734 5736 5736 5736 5736 5735 5735 5734 5734 5734 5734 5732 5730 5729 5727 5725 5723 5721 5720 5719 5717
5623 5614 5623 5638 5638 5636 5642 5639 5651 5655 5648 5654 5659 5665 5673 5683 5689 5690 5689 5692 5695 5701 5707 5712 5717 5722 5726 5728 5730 5732 5732 5733 5732 5732 5732 5729 5729 5730 5730 5730 5728 5727 5725 5723 5721 5719 5717 5716 5715
5608 5611 5617 5624 5628 5626 5632 5632 5633 5636 5637 5641 5651 5665 5674 5676 5675 5675 5677 5679 5686 5690 5697 5704 5708 5714 5718 5723 5725 5728 5729 5730 5729 5729 5729 5728 5727 5727 5727 5726 5725 5724 5723 5722 5720 5717 5715 5713 5712
5606 5600 5609 5615 5617 5616 5615 5618 5626 5625 5626 5632 5640 5648 5658 5661 5663 5667 5672 5676 5680 5686 5691 5695 5700 5705 5711 5716 5719 5722 5725 5726 5727 5727 5727 5727 5727 5725 5725 5723 5722 5720 5718 5717 5716 5714 5712 5711 5711
5583 5597 5597 5598 5604 5601 5602 5610 5612 5617 5624 5632 5639 5644 5646 5647 5653 5659 5664 5670 5676 5681 5685 5688 5692 5696 5702 5708 5713 5716 5719 5722 5723 5724 5724 5723 5725 5725 5725 5720 5718 5717 5715 5714 5713 5713 5713 5712 5712
5576 5587 5590 5590 5592 5594 5597 5598 5602 5613 5620 5629 5633 5637 5636 5640 5646 5652 5659 5665 5669 5672 5676 5680 5684 5688 5693 5697 5704 5710 5713 5715 5721 5721 5721 5721 5723 5723 5722 5721 5717 5715 5713 5712 5712 5711 5711 5712 5712
5576 5573 5574 5580 5583 5587 5591 5597 5601 5611 5620 5621 5622 5624 5631 5635 5637 5641 5645 5652 5658 5664 5668 5672 5677 5681 5686 5689 5695 5702 5706 5710 5714 5717 5719 5720 5720 5721 5720 5718 5717 5716 5714 5712 5710 5710 5711 5711 5711
5563 5558 5566 5574 5581 5582 5584 5583 5592 5602 5609 5614 5616 5621 5625 5626 5626 5625 5627 5634 5644 5650 5657 5664 5668 5674 5679 5684 5686 5693 5699 5703 5709 5713 5716 5716 5718 5719 5717 5716 5715 5715 5713 5711 5709 5709 5710 5710 5709
5550 5552 5546 5565 5571 5572 5570 5569 5596 5599 5599 5603 5607 5611 5614 5614 5614 5612 5613 5618 5625 5633 5639 5649 5659 5664 5671 5677 5681 5684 5691 5696 5702 5708 5713 5712 5713 5715 5713 5714 5715 5713 5711 5708 5708 5707 5706 5705 5703
5542 5531 5535 5545 5560 5560 5562 5563 5581 5594 5595 5596 5600 5601 5603 5604 5603 5601 5604 5606 5613 5621 5627 5637 5643 5655 5660 5667 5672 5677 5683 5688 5695 5700 5706 5710 5708 5710 5709 5710 5712 5713 5711 5707 5706 5705 5704 5701 5699
5516 5509 5518 5532 5544 5547 5549 5558 5569 5580 5589 5590 5593 5594 5593 5593 5591 5595 5599 5604 5611 5616 5625 5634 5638 5645 5652 5655 5659 5667 5676 5683 5689 5694 5699 5704 5704 5706 5704 5707 5707 5708 5708 5705 5703 5702 5702 5699 5694
5517 5514 5513 5525 5538 5543 5541 5549 5564 5575 5580 5585 5582 5581 5579 5580 5590 5596 5600 5601 5606 5615 5625 5633 5637 5638 5642 5644 5647 5655 5667 5674 5679 5687 5692 5697 5699 5702 5700 5704 5702 5699 5703 5704 5699 5696 5693 5692 5691
5505 5502 5504 5521 5533 5541 5539 5547 5562 5573 5582 5581 5577 5571 5571 5579 5585 5590 5591 5595 5601 5606 5616 5630 5635 5634 5637 5638 5641 5644 5652 5661 5669 5677 5682 5689 5692 5698 5698 5698 5700 5697 5697 5696 5692 5692 5688 5686 5687
5498 5494 5490 5502 5516 5530 5533 5543 5561 5574 5579 5578 5574 5569 5572 5573 5576 5580 5586 5588 5590 5596 5606 5615 5628 5631 5632 5631 5629 5633 5638 5646 5653 5661 5667 5675 5680 5686 5690 5693 5695 5695 5696 5692 5688 5685 5684 5680 5679
5484 5494 5495 5493 5500 5503 5534 5527 5563 5571 5573 5572 5569 5564 5568 5568 5572 5574 5578 5583 5586 5590 5597 5607 5618 5627 5627 5624 5622 5622 5629 5635 5646 5653 5661 5666 5672 5680 5685 5689 5693 5690 5690 5689 5686 5683 5681 5676 5672
5486 5493 5488 5492 5499 5509 5529 5521 5562 5570 5565 5567 5566 5565 5562 5564 5565 5567 5569 5574 5580 5587 5593 5603 5612 5621 5623 5620 5618 5616 5617 5626 5631 5636 5643 5654 5660 5672 5678 5687 5689 5680 5685 5685 5682 5678 5679 5676 5675
5499 5498 5497 5497 5503 5501 5535 5535 5556 5556 5564 5566 5564 5562 5562 5561 5562 5561 5565 5570 5578 5585 5591 5599 5609 5615 5615 5610 5607 5606 5608 5611 5614 5622 5629 5641 5653 5676 5682 5685 5681 5675 5675 5679 5677 5674 5674 5671 5669
5508 5502 5490 5497 5506 5524 5552 5540 5550 5567 5569 5566 5562 5562 5562 5558 5558 5558 5564 5569 5576 5582 5588 5595 5601 5606 5607 5603 5595 5593 5596 5600 5607 5613 5619 5627 5641 5657 5662 5656 5671 5662 5674 5674 5671 5668 5667 5667 5664
5513 5514 5502 5511 5524 5537 5559 5546 5561 5574 5572 5571 5569 5565 5563 5559 5557 5559 5565 5568 5572 5579 5585 5591 5596 5598 5600 5597 5591 5587 5588 5594 5601 5606 5611 5618 5628 5647 5661 5664 5664 5668 5667 5667 5667 5667 5665 5663 5662
5528 5520 5525 5519 5519 5512 5559 5577 5574 5572 5571 5570 5568 5567 5564 5560 5559 5564 5568 5569 5572 5577 5582 5586 5588 5592 5598 5594 5590 5589 5588 5588 5595 5602 5608 5614 5622 5631 5641 5651 5656 5660 5662 5661 5661 5663 5662 5659 5655
5532 5532 5523 5528 5514 5538 5563 5577 5558 5566 5570 5569 5565 5563 5562 5561 5563 5563 5567 5569 5574 5576 5579 5584 5587 5592 5595 5595 5591 5589 5588 5591 5595 5594 5598 5608 5618 5625 5632 5640 5649 5643 5656 5656 5656 5656 5656 5657 5654
5539 5535 5537 5520 5524 5512 5513 5547 5582 5571 5570 5566 5566 5566 5564 5562 5561 5565 5569 5571 5571 5574 5577 5582 5587 5587 5590 5594 5591 5588 5587 5587 5593 5596 5602 5603 5612 5624 5629 5639 5639 5645 5647 5651 5652 5652 5651 5650 5647
5555 5553 5542 5511 5533 5521 5505 5522 5579 5568 5564 5564 5562 5566 5567 5565 5563 5562 5566 5569 5570 5574 5575 5576 5579 5581 5579 5584 5587 5587 5589 5593 5591 5591 5597 5606 5615 5620 5629 5636 5635 5639 5641 5644 5647 5645 5643 5642 5641